User: anonymous   Login
Location: Unspecified
(0.0000°N, 0.0000°E)
Time: 20:16:46
(UTC+01:00)
Language:

ARIANE 5 R/B - Orbit

View from above orbital plane
View from above orbital plane
View from above satellite
View from above satellite

Ground track
Ground track

The orbit data is extracted from the following two-line orbital elements,

1 27510U 02040C   17015.98190653 -.00000086 +00000-0 +41917-3 0  9996
2 27510 005.0641 273.0308 7170923 213.7820 345.9700 02.27196659119420
Epoch (UTC): 15 January 2017 23:33:56
Eccentricity: 0.7170923
inclination: 5.0641°
perigee height: 536 km
apogee height: 35590 km
right ascension of ascending node: 273.0308°
argument of perigee: 213.7820°
revolutions per day: 2.27196659
mean anomaly at epoch: 345.9700°
orbit number at epoch: 11942

The dashed part of the orbit path shows where the satellite is in the earth's shadow,  

DLR